Location: Recife
(8.0585°S, 34.8848°W)
Time: 00:27:41
(UTC-03:00)

N. Korean satellite - Pass Details

Date: 04 December 2022
Orbit: 407 x 441 km, 97.3° (Epoch: 05 February)

Event Time Altitude Azimuth Distance (km) Brightness Sun altitude
Rises 03:45:01 0° 28° (NNE) 2,431 10.1 -16.1°
Reaches altitude 10° 03:47:12 10° 39° (NE) 1,554 9.3 -15.6°
Maximum altitude 03:50:09 30° 102° (ESE) 815 8.5 -15.0°
Drops below altitude 10° 03:53:04 10° 164° (SSE) 1,534 9.7 -14.3°
Sets 03:55:13 0° 175° (S) 2,393 10.5 -13.9°
